This demonstration page uses our WeatherBlox Daily Observations layout. Learn more.

Left ArrowRight Arrow

41.86663, -103.66717

Hourly Observations for September 27, 2015

Temp ( °F °C ) Dew Point ( °F °C ) Humidity (%) Winds ( mph kmh ) Pressure ( in mb ) Visibility ( mi km ) Precip ( " mm )
12:53 am 00:53 Clear 58 14.4 52 11.1 81 81 E 8 13 29.83 1010 10 16.0934 0 0
1:53 am 01:53 Clear 56 13.3 51 10.6 84 84 E 8 13 29.82 1010 10 16.0934 0 0
2:53 am 02:53 Clear 55 12.8 51 10.6 87 87 ENE 6 9 29.8 1009 10 16.0934 0 0
3:53 am 03:53 Clear 53 11.7 50 10 89 89 E 7 11 29.79 1009 10 16.0934 0 0
4:53 am 04:53 Clear 53 11.7 49 9.4 86 86 undefined N/A 29.78 1009 10 16.0934 0 0
5:53 am 05:53 Clear 51 10.6 48 8.9 89 89 undefined N/A 29.8 1009 10 16.0934 0 0
6:53 am 06:53 Sunny 49 9.4 47 8.3 93 93 N 5 7 29.84 1011 10 16.0934 0 0
7:31 am 07:31 Sunny with Mist and Fog 51 10.6 48 8.9 89 89 Calm 29.88 1012 2 3.21868 0 0
7:53 am 07:53 Sunny with Mist and Fog 53 11.7 50 10 89 89 WSW 3 6 29.87 1011 5 8.0467 0 0
8:53 am 08:53 Sunny 61 16.1 50 10 67 67 NW 7 11 29.88 1012 10 16.0934 0 0
9:53 am 09:53 Sunny 70 21.1 48 8.9 46 46 WNW 13 20 29.86 1011 10 16.0934 0 0
10:53 am 10:53 Sunny 77 25 45 7.2 32 32 W 13 20 29.84 1011 10 16.0934 0 0
11:53 am 11:53 Sunny 82 27.8 46 7.8 28 28 NW 13 20 29.83 1010 10 16.0934 0 0
12:53 pm 12:53 Sunny 85 29.4 46 7.8 26 26 W 10 17 29.81 1010 10 16.0934 0 0
1:53 pm 13:53 Sunny 89 31.7 44 6.7 21 21 WNW 6 9 29.78 1009 10 16.0934 0 0
2:53 pm 14:53 Sunny 87 30.6 42 5.6 21 21 E 10 17 29.78 1008 10 16.0934 0 0
3:53 pm 15:53 Sunny 86 30 45 7.2 24 24 E 10 17 29.78 1008 10 16.0934 0 0
4:53 pm 16:53 Sunny 85 29.4 49 9.4 29 29 E 13 20 29.77 1008 10 16.0934 0 0
5:53 pm 17:53 Sunny 80 26.7 51 10.6 37 37 E 12 19 29.78 1009 10 16.0934 0 0
6:53 pm 18:53 Clear 72 22.2 51 10.6 48 48 E 6 9 29.81 1009 10 16.0934 0 0
7:53 pm 19:53 Clear 66 18.9 52 11.1 61 61 E 6 9 29.82 1010 10 16.0934 0 0
8:53 pm 20:53 Clear 65 18.3 51 10.6 61 61 NE 6 9 29.82 1010 10 16.0934 0 0
9:53 pm 21:53 Clear 64 17.8 51 10.6 63 63 E 7 11 29.8 1009 10 16.0934 0 0
10:53 pm 22:53 Clear 64 17.8 50 10 60 60 E 9 15 29.78 1008 10 16.0934 0 0
11:53 pm 23:53 Clear 61 16.1 50 10 67 67 ESE 9 15 29.78 1008 10 16.0934 0 0

Powered by AerisWeather